Date String (YYYY-MM-DD hh:mm:ss) UTC,Instrument flags,absolute air pressure of the measurement (hPa),sample flow rate (lpm),inlet stack bypass flow (lpm),air temperature of the measurement (°C),ambient temperature measured by the external sensor (°C),aerosol sample conditioner tube jacket temperature (°C),OPC LED temperature (°C),internal box temperature (°C),relative humidity of the measurement (%),span deviation,mass concentration of particles derived from Lorenz-Mie calculation of OPC scattering (μg/m³),mass concentration of particles derived from Lorenz-Mie calculation of OPC scattering (μg/m³),mass concentration of particles derived from Lorenz-Mie calculation of OPC scattering (μg/m³)
DateTimeUTC,F1_M11,P_M11,Q1_M11,Q2_M11,T1_M11,T2_M11,T3_M11,T4_M11,T5_M11,U1_M11,ZSPAN_M11,X2_M11,X0_M11,X1_M11
2024-03-11 04:00:00,SystemResetWarning,0826.9,4.99,000.00,023.1,021.9,000.0,031.8,024.8,05.3,0000.0,0005.66,0021.34,0002.04
2024-03-11 04:01:00,SystemResetWarning,0826.9,5.00,000.00,023.1,021.9,000.0,031.8,024.8,05.1,0000.0,0005.62,0021.03,0002.02
2024-03-11 04:02:00,SystemResetWarning,0826.9,5.00,000.00,023.0,021.9,000.0,031.8,024.8,05.0,0000.0,0005.64,0020.96,0002.03
2024-03-11 04:03:00,SystemResetWarning,0826.9,5.01,000.00,023.0,021.8,000.0,031.8,024.8,05.1,0000.0,0005.67,0020.72,0002.02
2024-03-11 04:04:00,SystemResetWarning,0826.9,5.00,000.00,023.0,021.8,000.0,031.8,024.8,05.4,0000.0,0005.58,0019.79,0002.03
2024-03-11 04:05:00,SystemResetWarning,0826.9,4.99,000.00,023.0,021.8,000.0,031.7,024.8,05.1,0000.0,0005.50,0020.11,0002.02
2024-03-11 04:06:00,SystemResetWarning,0826.8,4.99,000.00,023.0,021.8,000.0,031.7,024.7,05.0,0000.0,0005.53,0020.05,0002.02
2024-03-11 04:07:00,SystemResetWarning,0826.8,5.02,000.00,023.0,021.8,000.0,031.7,024.7,04.6,0000.0,0005.55,0019.95,0002.01
2024-03-11 04:08:00,SystemResetWarning,0826.8,5.00,000.00,022.9,021.8,000.0,031.7,024.7,04.4,0000.0,0005.62,0020.79,0002.03
2024-03-11 04:09:00,SystemResetWarning,0826.8,4.99,000.00,022.9,021.8,000.0,031.7,024.8,04.9,0000.0,0005.54,0020.17,0002.02
2024-03-11 04:10:00,SystemResetWarning,0826.8,4.99,000.00,022.9,021.8,000.0,031.7,024.7,05.2,0000.0,0005.54,0019.46,0002.04
2024-03-11 04:11:00,SystemResetWarning,0826.9,5.01,000.00,022.9,021.8,000.0,031.6,024.7,05.7,0000.0,0005.43,0018.36,0002.03
2024-03-11 04:12:00,SystemResetWarning,0826.9,5.01,000.00,022.9,021.8,000.0,031.6,024.7,05.9,0000.0,0005.41,0017.96,0002.04
2024-03-11 04:13:00,SystemResetWarning,0826.9,4.99,000.00,022.9,021.8,000.0,031.6,024.7,05.4,0000.0,0005.34,0017.52,0002.03
2024-03-11 04:14:00,SystemResetWarning,0826.9,5.00,000.00,022.9,021.7,000.0,031.6,024.6,05.2,0000.0,0005.31,0017.39,0002.04
2024-03-11 04:15:00,SystemResetWarning,0826.9,4.99,000.00,022.9,021.7,000.0,031.6,024.6,05.0,0000.0,0005.31,0017.59,0002.06
2024-03-11 04:16:00,SystemResetWarning,0826.9,5.01,000.00,022.8,021.6,000.0,031.6,024.6,05.6,0000.0,0005.32,0018.00,0002.07
2024-03-11 04:17:00,SystemResetWarning,0826.9,5.01,000.00,022.8,021.6,000.0,031.5,024.5,05.5,0000.0,0005.27,0017.68,0002.05
2024-03-11 04:18:00,SystemResetWarning,0826.9,5.01,000.00,022.8,021.5,000.0,031.5,024.5,05.4,0000.0,0005.20,0017.45,0002.04
2024-03-11 04:19:00,SystemResetWarning,0826.9,5.00,000.00,022.7,021.4,000.0,031.5,024.4,05.3,0000.0,0005.13,0016.49,0002.02
2024-03-11 04:20:00,SystemResetWarning,0826.9,4.99,000.00,022.7,021.4,000.0,031.5,024.4,05.4,0000.0,0005.18,0016.83,0002.02
2024-03-11 04:21:00,SystemResetWarning,0826.9,4.99,000.00,022.7,021.4,000.0,031.5,024.4,05.3,0000.0,0005.24,0016.77,0002.01
2024-03-11 04:22:00,SystemResetWarning,0826.9,5.00,000.00,022.6,021.4,000.0,031.4,024.4,05.3,0000.0,0005.26,0016.85,0002.02
2024-03-11 04:23:00,SystemResetWarning,0826.9,5.00,000.00,022.6,021.3,000.0,031.4,024.3,05.2,0000.0,0005.39,0017.13,0002.05
2024-03-11 04:24:00,SystemResetWarning,0826.9,5.00,000.00,022.6,021.3,000.0,031.4,024.3,05.3,0000.0,0005.46,0017.42,0002.06
2024-03-11 04:25:00,SystemResetWarning,0826.9,5.00,000.00,022.6,021.3,000.0,031.4,024.3,05.5,0000.0,0005.46,0017.67,0002.05
2024-03-11 04:26:00,SystemResetWarning,0826.9,5.01,000.00,022.6,021.3,000.0,031.3,024.3,05.7,0000.0,0005.51,0018.36,0002.05
2024-03-11 04:27:00,SystemResetWarning,0827.0,5.00,000.00,022.6,021.4,000.0,031.3,024.3,05.4,0000.0,0005.45,0017.55,0002.05
2024-03-11 04:28:00,SystemResetWarning,0827.0,4.99,000.00,022.6,021.4,000.0,031.3,024.3,05.4,0000.0,0005.43,0017.45,0002.05
2024-03-11 04:29:00,SystemResetWarning,0827.0,4.99,000.00,022.6,021.4,000.0,031.3,024.3,05.5,0000.0,0005.41,0017.38,0002.06
2024-03-11 04:30:00,SystemResetWarning,0826.9,5.01,000.00,022.6,021.4,000.0,031.3,024.3,05.4,0000.0,0005.39,0017.45,0002.07
2024-03-11 04:31:00,SystemResetWarning,0827.0,5.01,000.00,022.6,021.4,000.0,031.3,024.4,05.4,0000.0,0005.37,0017.71,0002.08
2024-03-11 04:32:00,SystemResetWarning,0827.0,5.01,000.00,022.6,021.5,000.0,031.3,024.4,05.4,0000.0,0005.33,0017.78,0002.10
2024-03-11 04:33:00,SystemResetWarning,0826.9,4.99,000.00,022.6,021.5,000.0,031.3,024.4,05.2,0000.0,0005.32,0017.73,0002.10
2024-03-11 04:34:00,SystemResetWarning,0827.0,4.99,000.00,022.6,021.5,000.0,031.2,024.4,05.3,0000.0,0005.23,0017.67,0002.07
2024-03-11 04:35:00,SystemResetWarning,0827.0,4.99,000.00,022.6,021.5,000.0,031.2,024.4,05.3,0000.0,0005.20,0017.79,0002.06
2024-03-11 04:36:00,SystemResetWarning,0826.9,5.00,000.00,022.6,021.6,000.0,031.2,024.4,05.2,0000.0,0005.23,0017.45,0002.07
2024-03-11 04:37:00,SystemResetWarning,0826.9,5.00,000.00,022.6,021.6,000.0,031.2,024.4,05.1,0000.0,0005.20,0016.87,0002.05
2024-03-11 04:38:00,SystemResetWarning,0827.0,5.00,000.00,022.6,021.6,000.0,031.2,024.4,05.0,0000.0,0005.20,0016.81,0002.04
2024-03-11 04:39:00,SystemResetWarning,0826.9,5.00,000.00,022.6,021.7,000.0,031.2,024.5,05.0,0000.0,0005.25,0017.05,0002.04
2024-03-11 04:40:00,SystemResetWarning,0826.9,5.00,000.00,022.6,021.7,000.0,031.2,024.5,04.8,0000.0,0005.31,0017.81,0002.05
2024-03-11 04:41:00,SystemResetWarning,0826.9,5.00,000.00,022.6,021.7,000.0,031.2,024.5,04.8,0000.0,0005.33,0018.15,0002.04
2024-03-11 04:42:00,SystemResetWarning,0826.9,5.00,000.00,022.6,021.8,000.0,031.2,024.5,04.9,0000.0,0005.31,0017.58,0002.04
2024-03-11 04:43:00,SystemResetWarning,0827.0,4.99,000.00,022.6,021.8,000.0,031.2,024.5,04.8,0000.0,0005.32,0017.95,0002.04
2024-03-11 04:44:00,SystemResetWarning,0826.9,5.00,000.00,022.7,021.8,000.0,031.2,024.5,04.9,0000.0,0005.38,0018.99,0002.05
2024-03-11 04:45:00,SystemResetWarning,0826.9,4.99,000.00,022.7,021.8,000.0,031.2,024.5,05.0,0000.0,0005.49,0019.03,0002.05
2024-03-11 04:46:00,SystemResetWarning,0826.9,5.00,000.00,022.7,021.8,000.0,031.2,024.6,05.0,0000.0,0005.49,0018.97,0002.05
2024-03-11 04:47:00,SystemResetWarning,0826.9,5.00,000.00,022.7,021.8,000.0,031.2,024.6,04.9,0000.0,0005.42,0017.90,0002.05
2024-03-11 04:48:00,SystemResetWarning,0826.9,5.01,000.00,022.7,021.8,000.0,031.2,024.6,04.9,0000.0,0005.45,0017.59,0002.07
2024-03-11 04:49:00,SystemResetWarning,0826.9,5.00,000.00,022.7,021.8,000.0,031.2,024.6,05.0,0000.0,0005.47,0017.63,0002.08
2024-03-11 04:50:00,SystemResetWarning,0826.9,5.00,000.00,022.7,021.8,000.0,031.2,024.6,05.0,0000.0,0005.50,0018.07,0002.09
2024-03-11 04:51:00,SystemResetWarning,0826.9,5.00,000.00,022.7,021.8,000.0,031.2,024.6,04.9,0000.0,0005.50,0017.46,0002.12
2024-03-11 04:52:00,SystemResetWarning,0826.9,5.00,000.00,022.7,021.8,000.0,031.2,024.6,04.8,0000.0,0005.56,0017.50,0002.14
2024-03-11 04:53:00,SystemResetWarning,0826.9,5.00,000.00,022.7,021.8,000.0,031.3,024.6,04.9,0000.0,0005.55,0017.15,0002.14
2024-03-11 04:54:00,SystemResetWarning,0826.9,5.00,000.00,022.7,021.8,000.0,031.3,024.6,04.9,0000.0,0005.51,0016.99,0002.12
2024-03-11 04:55:00,SystemResetWarning,0826.8,5.00,000.00,022.7,021.8,000.0,031.3,024.6,04.9,0000.0,0005.44,0016.87,0002.12
2024-03-11 04:56:00,SystemResetWarning,0826.8,4.99,000.00,022.7,021.8,000.0,031.3,024.6,04.9,0000.0,0005.43,0017.00,0002.14
2024-03-11 04:57:00,SystemResetWarning,0826.8,5.00,000.00,022.7,021.8,000.0,031.3,024.6,04.9,0000.0,0005.44,0017.00,0002.16
2024-03-11 04:58:00,SystemResetWarning,0826.8,5.00,000.00,022.7,021.8,000.0,031.3,024.6,04.9,0000.0,0005.49,0017.53,0002.17
2024-03-11 04:59:00,SystemResetWarning,0826.8,5.00,000.00,022.7,021.8,000.0,031.3,024.6,04.9,0000.0,0005.50,0017.88,0002.18
